Regional Weather Roundup
Issued by NWS

Home | Current Version | Previous Version | Text Only | Print | Product List | Glossary On
Versions: 1 2 3 4 5 6 7 8 9 10 11 12 13 14 15 16 17 18 19 20 21 22 23 24 25 26 27 28 29 30 31 32 33 34 35 36 37 38 39 40 41 42 43 44 45 46 47 48 49 50
000
ASUS43 KDTX 020510
RWRMI
MICHIGAN HOURLY REGIONAL WEATHER ROUNDUP
NATIONAL WEATHER SERVICE DETROIT/PONTIAC MI
100 AM EDT THU JUL 02 2015

NOTE: "FAIR" INDICATES FEW OR NO CLOUDS BELOW 12,000 FEET WITH NO
SIGNIFICANT WEATHER AND/OR OBSTRUCTION TO VISIBILITY.

MIZ047>049-052>055-059>063-066>070-074>076-081>083-020600-
SOUTHEAST LOWER MICHIGAN

CITY           SKY/WX    TMP DP  RH WIND       PRES   REMARKS
ADRIAN         MOCLDY    58  55  90 NE6       29.97R
ALMA           CLEAR     57  54  88 N6        30.00S
ANN ARBOR      PTCLDY    53  53 100 NE3       29.97R
BAD AXE        CLOUDY    58  55  88 CALM      30.00S
CARO           CLOUDY    58  56  94 CALM      29.98S
DETROIT CITY   MOCLDY    61  57  87 NE7       29.97R
DETROIT        CLOUDY    61  55  81 N5        29.96S
FLINT          PTCLDY    60  55  83 N5        29.97S
HILLSDALE      MOCLDY    58  58  97 CALM      29.98R
HOWELL         PTCLDY    55  54  95 CALM      29.97S

CITY           SKY/WX    TMP DP  RH WIND       PRES   REMARKS
JACKSON        PTCLDY    55  53  93 CALM      29.97S
LAMBERTVILLE   MOCLDY    64  56  77 CALM      29.96R
LANSING        CLEAR     58  55  90 N9        29.98S
LAPEER         NOT AVBL
MONROE         MOCLDY    61  57  86 N3        29.95R
MT. CLEMENS    MOCLDY    58  56  94 NE9       29.95F
PONTIAC        PTCLDY    56  54  93 NE5       29.97R
PORT HOPE        N/A     60  55  83 N3        29.98R
PORT HURON     CLOUDY    59  57  94 CALM      29.98S
TRI CITIES     CLOUDY    61  54  77 N12       30.00R
MIDLAND        NOT AVBL
TROY           MOCLDY    61  58  90 NE8       29.99S
SAGINAW HB     CLOUDY    59  57  94 N5        29.98S
$$
MIZ043>046-050>051-056>058-064>065-071>073-077>080-020600-
SOUTHWEST LOWER MICHIGAN

CITY           SKY/WX    TMP DP  RH WIND       PRES   REMARKS
BATTLE CREEK   CLEAR     56  52  86 NW3       29.98S
BENTON HARBOR  PTCLDY    54  52  93 NE3       29.98S
BIG RAPIDS     CLOUDY    58  48  70 NE5       30.01S
COLDWATER      MOCLDY    56  54  93 CALM      29.97S
FREMONT        FAIR      57  53  88 N7        30.00S
HOLLAND        CLEAR     56  52  86 N3        30.00S
GRAND RAPIDS   CLEAR     55  53  93 N6        29.99S
KALAMAZOO      PTCLDY    54  51  90 N5        29.98S
LUDINGTON      CLEAR     51  49  92 CALM      30.03S
MOUNT PLEASANT MOCLDY    55  52  88 CALM      30.00S
MUSKEGON       CLEAR     56  51  84 N6        30.00S
SOUTH HAVEN    PTCLDY    51  50  95 CALM      29.99S
$$
MIZ016>042-020600-
NORTHERN LOWER MICHIGAN

CITY           SKY/WX    TMP DP  RH WIND       PRES   REMARKS
ALPENA         CLOUDY    53  47  79 CALM      30.01S
BEAVER ISLAND  CLEAR     50  43  77 CALM      30.04R
BELLAIRE       PTCLDY    46  45  95 CALM      30.03R
CADILLAC       CLEAR     45  44  97 CALM      30.03R
CHARLEVOIX     CLEAR     55  46  69 N6        30.06R
FRANKFORT      CLEAR     46  41  82 CALM      30.03S
GAYLORD        PTCLDY    50  49  96 CALM      30.02S
GRAYLING       PTCLDY    46  45  97 CALM      30.03S FOG
HARBOR SPRINGS PTCLDY    51  45  80 CALM      30.03R
HOUGHTON LAKE  CLEAR     51  49  92 NW5       30.02S
MANISTEE       CLEAR     46  43  87 CALM      30.03S VSB 1
PELLSTON       PTCLDY    48  45  89 NW3       30.03R
ROGERS CITY    MOCLDY    53  47  79 NW3       30.02S
TRAVERSE CITY  CLEAR     48  45  89 CALM      30.01S
$$
MIZ007>008-015-020600-
EASTERN UPPER MICHIGAN

CITY           SKY/WX    TMP DP  RH WIND       PRES   REMARKS
KINROSS        CLEAR     46  43  87 NW7       30.01S
MACKINAC ISLAN PTCLDY    51  45  79 N9        30.02R
NEWBERRY       CLEAR     42  40  95 CALM      30.03R
S. S. MARIE    CLEAR     46  41  82 CALM      30.01R
MUNISING         N/A     46  42  86 S9        30.03R
$$
MIZ004>006-011>014-085-020600-
CENTRAL UPPER MICHIGAN

CITY           SKY/WX    TMP DP  RH WIND       PRES   REMARKS
MANISTIQUE     CLEAR     42  39  89 N6        30.03S
ESCANABA       CLEAR     45  39  81 CALM      30.04S
MENOMINEE      CLEAR     50  43  76 CALM      30.04S
SAWYER-GWINN   CLEAR     48  42  80 CALM      30.05R
$$
MIZ001>003-009>011-084-020600-
WESTERN UPPER MICHIGAN

CITY           SKY/WX    TMP DP  RH WIND       PRES   REMARKS
IRON MOUNTAIN  CLEAR     48  45  89 CALM      30.05R
HOUGHTON       CLOUDY    56  45  66 W3        30.02R
COPPER HARBOR    N/A     51  47  86 CALM      30.01R
IRONWOOD       CLEAR     48  46  93 CALM      30.01S
$$

ABBREVIATIONS USED IN REMARKS
   TC - TEMPERATURE IN CELSIUS
  WCI - WIND CHILL INDEX
   HX - HEAT INDEX
  VSB - VISIBILITY




USA.gov is the U.S. government's official web portal to all federal, state and local government web resources and services.